Cape Town International Airport

Airport
ICAO code: 
FACT
IATA Code: 
CPT
Summary
ICAO Region: 
AFI
Territory: 
Location: 
, Western Cape
Serving: 
Cape Town
Elevation: 
151 ft
Coordinates: 
Aerial View: 
33° 57' 53.302" S, 18° 36' 6.001" E
Metar
Observation
FACT 260400Z 20015KT CAVOK 18/15 Q1013 NOSIG
Station
Cape Town, Cape Town International Airport
Date/Time
2022-01-26 04:00:00
Wind direction
200°
Wind speed
15 kts
Lowest cloud amount
clouds and visibility OK
Temperature
18°C
Dew point
15°C
Humidity
82%
QNH
1013 hPa
Weather condition
n/a

Runways

Designator Length Width Surface Rops
16/34 1701 46 ASP Yes/Yes
1/19 3201 61 ASP Yes/Yes
Airport map: 
Aerial View: 

Accidents and Serious Incidents at or in the vicinity of FACT

SKYbrary Partners:

Safety knowledge contributed by: